This is the latest recevied weather packets stored in our database for station/object LA9TLA-1. If no packets are shown the sender has not sent any weather packets the latest 10 day(s).
| Time | Temp. | Humidity | Pressure | Rain* | Wind** | Luminosity | Snow |
|---|---|---|---|---|---|---|---|
| 1788206702 | 14.44° C | 99% | 998.1 hPa | 0 mm | - | - | - |
| 1788204902 | 14.44° C | 99% | 997.9 hPa | 0 mm | - | - | - |
| 1788203102 | 15° C | 99% | 997.6 hPa | 0 mm | - | - | - |
| 1788199502 | 16.11° C | 99% | 996.8 hPa | 0 mm | - | - | - |
| 1788197702 | 16.11° C | 51% | 996.8 hPa | 0 mm | - | - | - |
| 1788195901 | 17.22° C | 35% | 996.6 hPa | 0 mm | - | - | - |
| 1788194102 | 17.78° C | 24% | 996.6 hPa | 0 mm | - | - | - |
| 1788192302 | 17.78° C | 17% | 996.6 hPa | 0 mm | - | - | - |
| 1788190503 | 18.33° C | 10% | 996.4 hPa | 0 mm | - | - | - |
| 1788188704 | 17.78° C | 13% | 996.2 hPa | 0 mm | - | - | - |
| 1788186901 | 17.78° C | 11% | 996.2 hPa | 0 mm | - | - | - |
| 1788185101 | 18.33° C | 11% | 996 hPa | 0 mm | - | - | - |
| 1788181502 | 18.33° C | 11% | 995.8 hPa | 0 mm | - | - | - |
| 1788179702 | 17.78° C | 11% | 995.8 hPa | 0 mm | - | - | - |
| 1788177904 | 17.78° C | 11% | 995.7 hPa | 0 mm | - | - | - |
| 1788176101 | 18.33° C | 11% | 995.8 hPa | 0 mm | - | - | - |
| 1788172502 | 18.33° C | 11% | 995.6 hPa | 0 mm | - | - | - |
| 1788170702 | 18.33° C | 11% | 995.8 hPa | 0 mm | - | - | - |
| 1788168903 | 19.44° C | 11% | 995.5 hPa | 0 mm | - | - | - |
| 1788167103 | 20° C | 12% | 995.5 hPa | 0 mm | - | - | - |
| 1788165301 | 21.11° C | 14% | 995.7 hPa | 0 mm | - | - | - |
| 1788163503 | 18.89° C | 45% | 995.7 hPa | 0 mm | - | - | - |
| 1788161701 | 17.22° C | 25% | 995.6 hPa | 0 mm | - | - | - |
| 1788159903 | 17.78° C | 99% | 995.7 hPa | 0 mm | - | - | - |
| 1788158104 | 15.56° C | 99% | 995.8 hPa | 0 mm | - | - | - |
* Rain latest hour (hover to see other rain measurements)
** Current wind speed in m/s (hover to see current wind gust speed)